"Pseudo-MPEC" for ZTAC5AD

Created 2018 Oct 12 12:18:26 UT using Find_Orb

Click here for an explanation of pseudo-MPECs

 
 Astrometry: 
     ZTAC5AD  C2018 10 05.36932 01 21 23.91 +07 13 16.5          20.0 GVNEOCPG96
     ZTAC5AD  C2018 10 05.37445 01 21 33.62 +07 12 53.0          19.4 GVNEOCPG96
     ZTAC5AD  C2018 10 05.37958 01 21 43.21 +07 12 29.8          19.4 GVNEOCPG96
     ZTAC5AD  C2018 10 05.38995 01 22 02.64 +07 11 42.3          19.9 GVNEOCPG96
     ZTAC5AD  C2018 10 05.49135 01 25 10.65 +07 04 02.5          19.7 GVNEOCPI52
     ZTAC5AD  C2018 10 05.49227 01 25 12.37 +07 03 58.3          20.4 GVNEOCPI52
     ZTAC5AD  C2018 10 05.49320 01 25 14.09 +07 03 54.5          20.1 GVNEOCPI52
     ZTAC5AD  C2018 10 05.49412 01 25 15.77 +07 03 49.9          20.2 GVNEOCPI52

Station data:
(G96) Mt. Lemmon Survey  (N32.442754 W110.788720)  US/Arizona.  Observers B.
   M. Africano, E. J. Christensen, D. C. Fuls, A. R. Gibbs, A. D. Grauer, J.
   A. Johnson, R. A. Kowalski, S. M. Larson, G. J. Leonard, R. L. Seaman, F.
   C. Shelly. 1.5-m reflector + 10K CCD.
(I52) Steward Observatory, Mt. Lemmon Station  (N32.442547 W110.788920)
   US/Arizona.  Observers B. M. Africano, E. J. Christensen, D. C. Fuls, A.
   R. Gibbs, A. D. Grauer, J. A. Johnson, R. A. Kowalski, S. M. Larson, G. J.
   Leonard, R. L. Seaman, F. C. Shelly. 1.0-m reflector + CCD.

Orbital elements:  ZTAC5AD
   Perihelion 2018 Sep 11.043905 +/- 13.4 TT =  1:03:13 (JD 2458372.543905)
Epoch 2018 Oct  5.0 TT = JDT 2458396.5   Earth MOID: 0.0080   AutoNEOCP
M   7.10227 +/- 19                  (J2000 ecliptic)
n   0.29647061 +/- 0.783            Peri.  150.03812 +/- 11
a   2.22748579 +/- 4.22             Node   191.69713 +/- 0.22
e   0.5640439 +/- 0.768             Incl.    4.72237 +/- 5.6
P   3.32                   H 27.8   G  0.15   U 12.6  
q 0.97108598 +/- 0.0337    Q 3.48388561 +/- 11.6
From 8 observations 2018 Oct. 5 (3.0 hr); mean residual 0".22
Residuals in arcseconds: 
181005 G96  .34-  .17+    181005 G96  .13-  .27-    181005 I52  .18+  .31+    
181005 G96  .56+  .02-    181005 I52  .24-  .04-    181005 I52  .06-  .14-    
181005 G96  .10-  .09+    181005 I52  .11+  .09-    

Ephemerides (geocentric):
Date (UTC) HH   RA              Dec         delta   r     elong  mag " sig PA
---- -- -- --  -------------   -----------  ------ ------ -----  --- ---- ---
2018 10 12 12  02 48 24.736   +03 32 28.77  .06022 1.0530 155.1 22.9 118d 103
2018 10 12 13  02 48 34.762   +03 31 59.97  .06046 1.0532 155.1 23.0 118d 103
2018 10 12 14  02 48 44.703   +03 31 31.42  .06070 1.0534 155.1 23.0 118d 103
2018 10 12 15  02 48 54.559   +03 31 03.10  .06094 1.0536 155.1 23.0 117d 103
2018 10 12 16  02 49 04.331   +03 30 35.02  .06117 1.0538 155.1 23.0 117d 103
2018 10 12 17  02 49 14.019   +03 30 07.17  .06141 1.0540 155.1 23.0 117d 103
2018 10 12 18  02 49 23.626   +03 29 39.55  .06165 1.0542 155.1 23.0 116d 103
2018 10 12 19  02 49 33.152   +03 29 12.16  .06189 1.0544 155.1 23.0 116d 103
2018 10 12 20  02 49 42.597   +03 28 45.00  .06213 1.0546 155.1 23.0 116d 103
2018 10 12 21  02 49 51.962   +03 28 18.06  .06237 1.0548 155.1 23.0 115d 103
2018 10 12 22  02 50 01.250   +03 27 51.34  .06261 1.0550 155.1 23.0 115d 103
2018 10 12 23  02 50 10.459   +03 27 24.84  .06284 1.0552 155.1 23.0 115d 103
2018 10 13 00  02 50 19.592   +03 26 58.56  .06308 1.0554 155.1 23.1 114d 103
2018 10 13 01  02 50 28.649   +03 26 32.50  .06332 1.0556 155.1 23.1 114d 103
2018 10 13 02  02 50 37.630   +03 26 06.64  .06356 1.0558 155.1 23.1 114d 103
2018 10 13 03  02 50 46.537   +03 25 41.00  .06380 1.0560 155.1 23.1 113d 103
2018 10 13 04  02 50 55.370   +03 25 15.57  .06404 1.0563 155.0 23.1 113d 103
2018 10 13 05  02 51 04.131   +03 24 50.35  .06428 1.0565 155.0 23.1 113d 103
2018 10 13 06  02 51 12.820   +03 24 25.33  .06452 1.0567 155.0 23.1 113d 103
2018 10 13 07  02 51 21.437   +03 24 00.51  .06476 1.0569 155.0 23.1 112d 103
2018 10 13 08  02 51 29.984   +03 23 35.89  .06500 1.0571 155.0 23.1 112d 103
2018 10 13 09  02 51 38.460   +03 23 11.48  .06524 1.0573 155.0 23.1 112d 103
2018 10 13 10  02 51 46.868   +03 22 47.26  .06548 1.0575 155.0 23.1 111d 103
2018 10 13 11  02 51 55.208   +03 22 23.23  .06572 1.0577 155.0 23.1 111d 103
2018 10 13 12  02 52 03.480   +03 21 59.40  .06596 1.0579 155.0 23.2 111d 103
2018 10 13 13  02 52 11.685   +03 21 35.77  .06620 1.0581 155.0 23.2 111d 103
2018 10 13 14  02 52 19.823   +03 21 12.32  .06644 1.0583 155.0 23.2 110d 103
2018 10 13 15  02 52 27.896   +03 20 49.06  .06668 1.0585 155.0 23.2 110d 103
2018 10 13 16  02 52 35.905   +03 20 25.98  .06692 1.0587 155.0 23.2 110d 103
2018 10 13 17  02 52 43.849   +03 20 03.10  .06716 1.0590 155.0 23.2 110d 103
2018 10 13 18  02 52 51.729   +03 19 40.39  .06740 1.0592 155.1 23.2 109d 103
2018 10 13 19  02 52 59.547   +03 19 17.87  .06764 1.0594 155.1 23.2 109d 103
2018 10 13 20  02 53 07.302   +03 18 55.52  .06788 1.0596 155.1 23.2 109d 103
2018 10 13 21  02 53 14.995   +03 18 33.36  .06812 1.0598 155.1 23.2 109d 103
2018 10 13 22  02 53 22.628   +03 18 11.37  .06836 1.0600 155.1 23.2 108d 103
2018 10 13 23  02 53 30.200   +03 17 49.56  .06860 1.0602 155.1 23.2 108d 103
2018 10 14 00  02 53 37.712   +03 17 27.92  .06884 1.0604 155.1 23.2 108d 103
2018 10 14 01  02 53 45.165   +03 17 06.45  .06908 1.0606 155.1 23.3 108d 103
2018 10 14 02  02 53 52.559   +03 16 45.15  .06932 1.0608 155.1 23.3 107d 103
2018 10 14 03  02 53 59.895   +03 16 24.02  .06956 1.0611 155.1 23.3 107d 103
2018 10 14 04  02 54 07.174   +03 16 03.06  .06980 1.0613 155.1 23.3 107d 103
2018 10 14 05  02 54 14.396   +03 15 42.27  .07004 1.0615 155.1 23.3 107d 103
2018 10 14 06  02 54 21.561   +03 15 21.64  .07028 1.0617 155.1 23.3 106d 103
2018 10 14 07  02 54 28.670   +03 15 01.17  .07053 1.0619 155.1 23.3 106d 103
2018 10 14 08  02 54 35.724   +03 14 40.86  .07077 1.0621 155.1 23.3 106d 103
2018 10 14 09  02 54 42.724   +03 14 20.72  .07101 1.0623 155.1 23.3 106d 103
2018 10 14 10  02 54 49.669   +03 14 00.73  .07125 1.0625 155.1 23.3 106d 103
2018 10 14 11  02 54 56.560   +03 13 40.90  .07149 1.0628 155.1 23.3 105d 103